Location: Newark
(44.1667°N, 8.2500°E)
Time: 17:09:04
(UTC+00:00)

S-56A Canister/Altair - Pass Details

Date: 18 December 2019
Orbit: 634 x 2498 km, 38.9° (Epoch: 27 January)

Event Time Altitude Azimuth Distance (km) Brightness Sun altitude
Rises 13:48:43 0° 285° (WNW) 6,124 12.4 14.7°
Reaches altitude 10° 13:53:21 10° 276° (W) 5,162 12.2 14.2°
Maximum altitude 14:05:24 31° 223° (SW) 3,567 12.7 13.0°
Drops below altitude 10° 14:16:00 10° 168° (SSE) 4,492 12.1 11.8°
Sets 14:19:44 0° 158° (SSE) 5,243 12.2 11.3°
